sat.trackr.live / text

‹ back to catalog

STARLINK-33800

NORAD 63576 · 2025-076H

PAYLOAD ACTIVE UNKNOWN

§ Identity

Operator
Country
US
Launch date
2025-04-14
Launch site
AFETR
Launch vehicle
Mass (kg)
RCS (m²)

Purposes: comms

External: N2YO · Heavens-Above · Gunter

§ Orbital elements

Epoch: 2026-05-25T00:03:26.066592Z

Period
94.27 min
Inclination
42.9998°
Eccentricity
0.0001246
Mean motion
15.27583219 rev/d
Perigee alt
482.2 km
Apogee alt
483.9 km
Semi-major
6,861.2 km
B*
3.7533e-4
RAAN
250.5318°
Arg perigee
274.5225°
Mean anomaly
85.5485°
Rev number
6,350

§ Raw data

STARLINK-338001 63576U 25076H   26145.00238503  .00010081  00000+0  37533-3 0  99992 63576  42.9998 250.5318 0001246 274.5225  85.5485 15.27583219 63506

JSON: /api/v1/satellites/63576 · /tle

For live sub-satellite position, see the globe view (requires WebGL).

§ Visibility from observer

Set your observer location to see the next 7 days of passes ≥ 10°. The values pass through the URL so the page stays shareable.

No JS? Fill the form by hand. The geolocation button needs JavaScript.